This is the latest recevied weather packets stored in our database for station/object p43g-13. If no packets are shown the sender has not sent any weather packets the latest 10 day(s).
| Time | Temp. | Humidity | Pressure | Rain* | Wind** | Luminosity | Snow |
|---|---|---|---|---|---|---|---|
| 1788090955 | 29.44° C | 78% | 1011 hPa | 0 mm | - | 142 W/m² | - |
| 1788090656 | 28.89° C | 78% | 1011 hPa | 0 mm | - | 129 W/m² | - |
| 1788090355 | 29.44° C | 79% | 1010.8 hPa | 0 mm | - | 115 W/m² | - |
| 1788090055 | 28.89° C | 79% | 1010.6 hPa | 0 mm | - | 105 W/m² | - |
| 1788089755 | 28.89° C | 80% | 1010.8 hPa | 0 mm | - | 95 W/m² | - |
| 1788089455 | 28.89° C | 81% | 1010.8 hPa | 0 mm | - | 86 W/m² | - |
| 1788089155 | 28.33° C | 82% | 1010.7 hPa | 0 mm | - | 77 W/m² | - |
| 1788088856 | 28.33° C | 83% | 1010.7 hPa | 0 mm | - | 47 W/m² | - |
| 1788088555 | 27.78° C | 84% | 1010.9 hPa | 0 mm | - | 42 W/m² | - |
| 1788088255 | 27.78° C | 84% | 1010.8 hPa | 0 mm | - | 32 W/m² | - |
| 1788087956 | 27.78° C | 84% | 1010.7 hPa | 0 mm | - | 34 W/m² | - |
| 1788087655 | 27.78° C | 84% | 1010.7 hPa | 0 mm | - | 25 W/m² | - |
| 1788087355 | 27.78° C | 84% | 1010.8 hPa | 0 mm | - | 22 W/m² | - |
| 1788087054 | 27.78° C | 84% | 1010.8 hPa | 0 mm | - | 19 W/m² | - |
| 1788086755 | 27.78° C | 84% | 1010.8 hPa | 0 mm | - | 14 W/m² | - |
| 1788086455 | 27.78° C | 84% | 1010.7 hPa | 0 mm | - | 9 W/m² | - |
| 1788086155 | 27.78° C | 84% | 1010.5 hPa | 0 mm | - | 6 W/m² | - |
| 1788085855 | 27.78° C | 84% | 1010.6 hPa | 0 mm | - | 3 W/m² | - |
| 1788085555 | 27.78° C | 84% | 1010.6 hPa | 0 mm | - | 0 W/m² | - |
| 1788085255 | 27.78° C | 84% | 1010.6 hPa | 0 mm | - | 0 W/m² | - |
| 1788084955 | 27.78° C | 84% | 1010.9 hPa | 0 mm | - | 0 W/m² | - |
| 1788084655 | 27.78° C | 84% | 1010.6 hPa | 0 mm | - | 0 W/m² | - |
| 1788084354 | 27.78° C | 83% | 1010.5 hPa | 0 mm | - | 0 W/m² | - |
| 1788084055 | 27.78° C | 83% | 1010.4 hPa | 0 mm | - | 0 W/m² | - |
| 1788083755 | 27.78° C | 83% | 1010.5 hPa | 0 mm | - | 0 W/m² | - |
* Rain latest hour (hover to see other rain measurements)
** Current wind speed in m/s (hover to see current wind gust speed)